[[{"header":{"parameterUnit":"m.s-1","parameterCategory":2,"la1":30.2991,"la2":30.254,"lo1":-89.0895,"lo2":-89.0444,"dy":0.0017,"dx":0.0017,"nx":28,"ny":28,"refTime":"2024-04-20T09:00:00:Z","depth":"0","parameterNumber":2,"parameterNumberName":"U-component_of_CURRENTS"},"data":[0,0,0,0,0,0,0,0,0,0,0,0,0,0,0,0,0,0,0,0,0,0,0,0,0,0,0,0,0,0,0,0,0,0,0,0,0,0,0,0,0,0,0,0,0,0,0,0,0,0,0,0,0,0,0,0,0,0,0.1818,0.1819,0,0.1883,0.1884,0.1884,0.1917,0.1918,0.1918,0.1919,0.1973,0.1974,0.1975,0,0,0,0,0,0,0,0,0,0,0,0,0,0.163,0.1634,0.1818,0.1819,0.1821,0.1883,0.1884,0.1884,0.1917,0.1918,0.1918,0.1919,0.1973,0.1974,0.1975,0,0,0,0,0,0,0,0,0,0,0,0,0,0.1701,0.1635,0.1818,0.1849,0.1853,0.1883,0.1884,0.1884,0.1917,0.1918,0.1919,0.1919,0.1973,0.1974,0.1975,0.1969,0,0,0.198,0.198,0,0,0,0,0,0,0,0,0.1697,0.1707,0.1843,0.1847,0.1851,0.1898,0.1838,0.1914,0.1917,0.1887,0.1919,0.192,0.195,0.1953,0.1956,0.1971,0.1974,0.198,0.1981,0.1981,0.1982,0,0,0,0,0,0,0,0.1692,0.1704,0.1839,0.1844,0.1849,0.1828,0.1839,0.1851,0.1909,0.189,0.1894,0.1909,0.1951,0.1955,0.1958,0.1974,0.198,0.1981,0.1982,0.1983,0.2034,0.2035,0,0,0,0,0,0,0.1699,0.17,0.1837,0.1841,0.178,0.1832,0.1844,0.1878,0.1909,0.1916,0.1908,0.191,0.1952,0.1956,0.196,0.1984,0.1981,0.1983,0.1984,0.2034,0.2034,0.2035,0,0,0,0,0,0,0.1695,0.1711,0.1834,0.1774,0.1789,0.1835,0.1872,0.1879,0.1885,0.1924,0.193,0.191,0.1953,0.1958,0.1977,0.1986,0.1983,0.1985,0.2033,0.2034,0.2034,0.2014,0,0,0,0,0,0,0.169,0.171,0.1726,0.1776,0.1793,0.1857,0.1872,0.1879,0.1896,0.1899,0.1927,0.1933,0.1954,0.1975,0.1979,0.1988,0.1986,0.2032,0.2033,0.2034,0.2014,0.2013,0.2013,0,0,0,0,0,0.1683,0.1712,0.1727,0.1743,0.1819,0.1858,0.1864,0.1894,0.1895,0.1901,0.192,0.1932,0.1984,0.1976,0.1981,0.199,0.2032,0.2033,0.2034,0.2014,0.2013,0.2013,0,0,0,0,0,0,0.1636,0.172,0.1737,0.179,0.1822,0.1866,0.1879,0.1889,0.1906,0.1908,0.1932,0.194,0.1966,0.1977,0.1968,0.2009,0.2013,0.2015,0.1996,0.1996,0.1996,0.2003,0.1987,0,0,0,0,0,0.1635,0.1682,0.1741,0.1779,0.1799,0.1831,0.1847,0.1867,0.1894,0.1902,0.1919,0.1943,0.1972,0.1982,0.2008,0.2019,0.2044,0.2031,0.2031,0.2031,0.2041,0.2083,0.2088,0.2038,0.2038,0.2038,0,0,0.1623,0.1678,0.1701,0.1771,0.1799,0.1827,0.1842,0.1871,0.1886,0.1905,0.1921,0.1944,0.1977,0.2001,0.2013,0.201,0.2057,0.2032,0.2032,0.2042,0.2085,0.209,0.2094,0.2039,0.2039,0.2039,0,0,0.1626,0.1675,0.1712,0.1744,0.1796,0.1818,0.1825,0.1865,0.1876,0.1893,0.1919,0.1945,0.1971,0.2004,0.2022,0.2035,0.2059,0.204,0.204,0.208,0.2085,0.2089,0.2118,0.2126,0.2035,0.2035,0.2035,0,0.1601,0.1671,0.172,0.176,0.1786,0.1814,0.1839,0.1854,0.1888,0.19,0.1899,0.1959,0.1978,0.2025,0.203,0.2035,0.2058,0.2034,0.208,0.2085,0.2089,0.2119,0.2127,0.2034,0.2034,0.2034,0.2034,0,0.1634,0.1682,0.1705,0.177,0.1794,0.1824,0.1859,0.187,0.1879,0.1898,0.1937,0.1966,0.2007,0.2013,0.2023,0.2069,0.2074,0.2077,0.2077,0.2093,0.2123,0.2132,0.2033,0.2033,0.2033,0.2033,0,0,0.1602,0.1706,0.1713,0.1744,0.1805,0.1828,0.1852,0.1887,0.19,0.1926,0.1952,0.1997,0.2014,0.2038,0.2058,0.2083,0.2126,0.2089,0.2091,0.2114,0.2211,0.2262,0.2277,0.2135,0.2137,0.2138,0.2214,0,0.1609,0.1684,0.173,0.1774,0.1815,0.1846,0.1863,0.1893,0.1913,0.1938,0.1978,0.2012,0.2025,0.2042,0.2075,0.2121,0.215,0.2104,0.2197,0.22,0.2241,0.2289,0.232,0.2396,0.2223,0.2225,0.2226,0,0.1623,0.1683,0.1733,0.1798,0.1813,0.1827,0.1865,0.1888,0.1931,0.1945,0.1991,0.2023,0.2084,0.2078,0.2178,0.2149,0.2182,0.2207,0.2211,0.2276,0.2269,0.2355,0.2418,0.2358,0.224,0.2239,0.2238,0,0.1591,0.1676,0.1716,0.1741,0.1813,0.1823,0.1849,0.1888,0.1911,0.1955,0.1977,0.205,0.2095,0.2154,0.2228,0.2202,0.2329,0.23,0.2378,0.2381,0.2437,0.2443,0.2453,0.2366,0.2366,0.2366,0.2366,0,0.1591,0.1621,0.1703,0.1727,0.1753,0.1808,0.1826,0.1853,0.1904,0.1929,0.1985,0.2036,0.2116,0.2201,0.2247,0.2364,0.2357,0.2401,0.2417,0.243,0.2434,0.2408,0.2329,0.2369,0.2368,0.2367,0.2367,0,0.1547,0.1606,0.1651,0.1724,0.1741,0.1756,0.1811,0.1825,0.188,0.1918,0.1938,0.2047,0.2167,0.2254,0.2361,0.2404,0.2461,0.2525,0.2534,0.2551,0.2557,0.2476,0.2451,0.2436,0.262,0.2622,0.2623,0,0.1535,0.156,0.1627,0.1643,0.1672,0.171,0.1724,0.1793,0.1814,0.193,0.1945,0.2089,0.2185,0.239,0.2511,0.263,0.2537,0.27,0.266,0.2586,0.2506,0.239,0.237,0.2715,0.2718,0.272,0.2721,0,0.1509,0.1522,0.1557,0.1591,0.1609,0.1638,0.1675,0.1697,0.1775,0.1836,0.1945,0.2046,0.228,0.245,0.2633,0.2716,0.2624,0.2742,0.267,0.2597,0.2468,0.2453,0.2616,0.2738,0.2736,0.2735,0.2734,0.2733,0.1468,0.1474,0.151,0.1532,0.1553,0.1567,0.1573,0.163,0.169,0.1778,0.1906,0.2054,0.2332,0.2625,0.2704,0.2857,0.274,0.2822,0.2733,0.2627,0.2599,0.28,0.2936,0.2936,0.2935,0.2935,0.2934,0,0.142,0.1436,0.1454,0.1476,0.1469,0.1505,0.1534,0.154,0.1596,0.172,0.1832,0.213,0.238,0.2612,0.2866,0.2841,0.2787,0.2781,0.2611,0.2598,0.2807,0.28,0.2909,0.2909,0.2909,0.2909,0.291,0.291,0.1393,0.1396,0.141,0.1396,0.1405,0.1384,0.1393,0.1424,0.1498,0.1644,0.1801,0.1951,0.2288,0.2607,0.2741,0.2746,0.2587,0.2527,0.2454,0.2578,0.2574,0.257,0.2548,0.2603,0.2602,0.2272,0.2269,0.2267]},{"header":{"parameterUnit":"m.s-1","parameterCategory":2,"la1":30.2991,"la2":30.254,"lo1":-89.0895,"lo2":-89.0444,"dy":0.0017,"dx":0.0017,"nx":28,"ny":28,"refTime":"2024-04-20T09:00:00:Z","depth":"0","parameterNumber":3,"parameterNumberName":"V-component_of_CURRENTS"},"data":[0,0,0,0,0,0,0,0,0,0,0,0,0,0,0,0,0,0,0,0,0,0,0,0,0,0,0,0,0,0,0,0,0,0,0,0,0,0,0,0,0,0,0,0,0,0,0,0,0,0,0,0,0,0,0,0,0,0,-0.0413,-0.0414,0,-0.0432,-0.0432,-0.0432,-0.0444,-0.0444,-0.0444,-0.0444,-0.043,-0.043,-0.0429,0,0,0,0,0,0,0,0,0,0,0,0,0,-0.0376,-0.0377,-0.0413,-0.0414,-0.0414,-0.0432,-0.0432,-0.0432,-0.0444,-0.0444,-0.0444,-0.0444,-0.043,-0.043,-0.0429,0,0,0,0,0,0,0,0,0,0,0,0,0,-0.0392,-0.0377,-0.0413,-0.0423,-0.0424,-0.0432,-0.0432,-0.0432,-0.0444,-0.0444,-0.0444,-0.0444,-0.0431,-0.043,-0.0429,-0.0417,0,0,-0.0426,-0.0426,0,0,0,0,0,0,0,0,-0.0391,-0.0393,-0.0421,-0.0423,-0.0424,-0.0437,-0.0414,-0.0426,-0.0443,-0.0434,-0.0444,-0.0445,-0.043,-0.043,-0.043,-0.0416,-0.0416,-0.0426,-0.0426,-0.0425,-0.0425,0,0,0,0,0,0,0,-0.039,-0.0392,-0.0419,-0.0422,-0.0423,-0.0423,-0.0426,-0.0416,-0.0428,-0.0435,-0.0437,-0.0441,-0.0431,-0.0431,-0.043,-0.0416,-0.0426,-0.0425,-0.0425,-0.0424,-0.0411,-0.0411,0,0,0,0,0,0,-0.0391,-0.0391,-0.0419,-0.042,-0.041,-0.0424,-0.0426,-0.0431,-0.0429,-0.043,-0.0441,-0.0442,-0.0433,-0.0431,-0.043,-0.0409,-0.0425,-0.0424,-0.0424,-0.0411,-0.0411,-0.0411,0,0,0,0,0,0,-0.039,-0.0394,-0.0418,-0.0407,-0.0411,-0.0424,-0.043,-0.0432,-0.0433,-0.0434,-0.0434,-0.0441,-0.0433,-0.0431,-0.0424,-0.0409,-0.0424,-0.0423,-0.0411,-0.0411,-0.0411,-0.0371,0,0,0,0,0,0,-0.0389,-0.0393,-0.039,-0.0407,-0.0411,-0.0419,-0.043,-0.0432,-0.0437,-0.0438,-0.0434,-0.0433,-0.0433,-0.0426,-0.0424,-0.0408,-0.0423,-0.0411,-0.0411,-0.0411,-0.0372,-0.037,-0.0368,0,0,0,0,0,-0.0388,-0.038,-0.039,-0.0393,-0.041,-0.0419,-0.042,-0.043,-0.0436,-0.0433,-0.0436,-0.0433,-0.0426,-0.0425,-0.0422,-0.0406,-0.041,-0.0411,-0.0411,-0.0373,-0.0371,-0.0368,0,0,0,0,0,0,-0.0358,-0.0381,-0.0393,-0.0391,-0.0405,-0.0421,-0.0416,-0.0428,-0.0428,-0.0428,-0.0431,-0.043,-0.042,-0.0423,-0.0422,-0.0407,-0.042,-0.042,-0.0392,-0.0389,-0.0387,-0.0372,-0.0422,0,0,0,0,0,-0.0353,-0.0352,-0.0379,-0.0375,-0.0382,-0.04,-0.0404,-0.0414,-0.0421,-0.0422,-0.0422,-0.0423,-0.0419,-0.0413,-0.0413,-0.0398,-0.0405,-0.039,-0.0388,-0.0386,-0.0374,-0.0378,-0.0374,-0.0413,-0.0413,-0.0413,0,0,-0.034,-0.0351,-0.0352,-0.0368,-0.0378,-0.0375,-0.0402,-0.0407,-0.0399,-0.0418,-0.0403,-0.0414,-0.0416,-0.0404,-0.0399,-0.0402,-0.0381,-0.0386,-0.0384,-0.0374,-0.0378,-0.0374,-0.037,-0.0413,-0.0413,-0.0413,0,0,-0.0309,-0.0326,-0.0316,-0.0325,-0.0341,-0.0354,-0.0356,-0.0376,-0.038,-0.0377,-0.0388,-0.039,-0.0385,-0.0381,-0.0379,-0.0365,-0.0373,-0.0371,-0.0339,-0.0342,-0.0339,-0.0335,-0.0345,-0.0343,-0.0365,-0.0365,-0.0365,0,-0.0288,-0.0286,-0.0313,-0.0304,-0.0303,-0.0342,-0.0329,-0.0338,-0.0351,-0.0348,-0.0367,-0.0365,-0.0371,-0.0347,-0.0348,-0.0356,-0.0366,-0.0344,-0.0337,-0.0334,-0.0332,-0.0343,-0.0341,-0.0363,-0.0364,-0.0364,-0.0364,0,-0.0259,-0.025,-0.0243,-0.0245,-0.0248,-0.0244,-0.0266,-0.0269,-0.0286,-0.0297,-0.0292,-0.0309,-0.0306,-0.0314,-0.0325,-0.0307,-0.0323,-0.0336,-0.0338,-0.0325,-0.0338,-0.0337,-0.0361,-0.0361,-0.0362,-0.0362,0,0,-0.0217,-0.0222,-0.0216,-0.0203,-0.0217,-0.0214,-0.0204,-0.0207,-0.0193,-0.0221,-0.0202,-0.0215,-0.0237,-0.0237,-0.0255,-0.0261,-0.026,-0.0289,-0.029,-0.0289,-0.0273,-0.0282,-0.0283,-0.0273,-0.0272,-0.0272,-0.0291,0,-0.018,-0.0153,-0.0163,-0.0127,-0.0115,-0.0137,-0.0117,-0.0124,-0.0143,-0.0137,-0.0167,-0.0162,-0.0204,-0.0204,-0.0216,-0.0247,-0.0255,-0.0254,-0.0294,-0.0295,-0.0297,-0.028,-0.026,-0.0275,-0.029,-0.029,-0.029,0,-0.0142,-0.0129,-0.0094,-0.0064,-0.0059,-0.0043,-0.0025,-0.0014,-0.0024,-0.0038,-0.0053,-0.0084,-0.0094,-0.0138,-0.0177,-0.0176,-0.0219,-0.025,-0.0252,-0.027,-0.0302,-0.0291,-0.0273,-0.0386,-0.0288,-0.0288,-0.0288,0,-0.0101,-0.0072,-0.0041,-0.0034,-0.0014,0.0006,0.0015,0.0015,0.0033,0.0018,0.0023,-0.0006,-0.0014,-0.0069,-0.0143,-0.016,-0.0191,-0.0222,-0.027,-0.0272,-0.0265,-0.0267,-0.0349,-0.0247,-0.0247,-0.0247,-0.0247,0,-0.0054,-0.0021,-0.002,-0.0001,0.0049,0.0048,0.0094,0.0094,0.0106,0.0136,0.0077,0.0094,0.0002,-0.0034,-0.0112,-0.0181,-0.0167,-0.0255,-0.0271,-0.0253,-0.0254,-0.0361,-0.0424,-0.0247,-0.0247,-0.0247,-0.0247,0,-0.0004,-0.0004,0.0035,0.0057,0.0069,0.0103,0.0141,0.0172,0.0172,0.0208,0.0207,0.0175,0.0129,0.0036,-0.0047,-0.013,-0.0259,-0.0232,-0.0208,-0.0221,-0.0382,-0.0442,-0.0533,-0.0573,-0.029,-0.029,-0.029,0,0.003,0.005,0.0073,0.0099,0.0112,0.0153,0.0188,0.0202,0.0232,0.0263,0.0288,0.0257,0.025,0.0122,-0.002,-0.0149,-0.0254,-0.0233,-0.0263,-0.0379,-0.0459,-0.051,-0.0541,-0.0245,-0.0245,-0.0245,-0.0244,0,0.0096,0.0093,0.0114,0.0152,0.0188,0.0237,0.028,0.0316,0.0343,0.038,0.0429,0.043,0.0309,0.0209,0.0024,-0.0089,-0.0308,-0.0235,-0.0356,-0.0426,-0.0485,-0.0534,-0.0255,-0.0243,-0.0243,-0.0243,-0.0243,-0.0244,0.014,0.0161,0.0174,0.0216,0.0258,0.0321,0.0375,0.0423,0.0495,0.058,0.056,0.0619,0.0435,0.0194,0.0004,-0.0304,-0.0308,-0.0391,-0.0454,-0.0494,-0.0537,-0.0258,-0.0267,-0.0267,-0.0267,-0.0268,-0.0268,0,0.0191,0.0206,0.0244,0.0293,0.035,0.0361,0.0444,0.0512,0.061,0.0702,0.0765,0.0757,0.0501,0.0217,-0.0188,-0.045,-0.0563,-0.0603,-0.0674,-0.0693,-0.0441,-0.0444,-0.049,-0.049,-0.049,-0.0489,-0.0489,-0.0489,0.0219,0.0258,0.0271,0.0368,0.041,0.0504,0.056,0.0661,0.0753,0.0913,0.1005,0.1043,0.0856,0.0049,-0.0508,-0.0664,-0.0857,-0.0906,-0.0997,-0.0838,-0.0823,-0.0809,-0.0828,-0.0954,-0.0954,-0.121,-0.1213,-0.1215]}],[{"header":{"parameterUnit":"m.s-1","parameterCategory":2,"la1":30.2991,"la2":30.254,"lo1":-89.0895,"lo2":-89.0444,"dy":0.0017,"dx":0.0017,"nx":28,"ny":28,"refTime":"2024-04-20T09:00:00:Z","depth":"2","parameterNumber":2,"parameterNumberName":"U-component_of_CURRENTS"},"data":[0,0,0,0,0,0,0,0,0,0,0,0,0,0,0,0,0,0,0,0,0,0,0,0,0,0,0,0,0,0,0,0,0,0,0,0,0,0,0,0,0,0,0,0,0,0,0,0,0,0,0,0,0,0,0,0,0,0,0.0389,0.0388,0,0.0329,0.0328,0.0328,0.0334,0.0335,0.0335,0.0336,0.0362,0.0362,0.0362,0,0,0,0,0,0,0,0,0,0,0,0,0,0.0502,0.05,0.039,0.0388,0.0387,0.0329,0.0328,0.0328,0.0334,0.0335,0.0335,0.0336,0.0362,0.0362,0.0362,0,0,0,0,0,0,0,0,0,0,0,0,0,0.0451,0.0499,0.039,0.0381,0.0379,0.0329,0.0328,0.0327,0.0334,0.0335,0.0336,0.0336,0.0362,0.0362,0.0362,0.0344,0,0,0.0363,0.0363,0,0,0,0,0,0,0,0,0.0454,0.0448,0.0383,0.0381,0.0379,0.0337,0.0377,0.0336,0.0333,0.0354,0.0336,0.0337,0.0359,0.0359,0.0349,0.0345,0.0346,0.0363,0.0363,0.0363,0.0363,0,0,0,0,0,0,0,0.0458,0.045,0.0369,0.0382,0.038,0.0377,0.0371,0.0369,0.0356,0.0353,0.0352,0.034,0.0359,0.0349,0.035,0.0347,0.0363,0.0363,0.0363,0.0363,0.0431,0.0433,0,0,0,0,0,0,0.0458,0.0453,0.0371,0.0367,0.0416,0.0374,0.0367,0.0352,0.0354,0.0354,0.0339,0.034,0.0348,0.035,0.0351,0.0429,0.0363,0.0363,0.0363,0.0429,0.0432,0.0433,0,0,0,0,0,0,0.046,0.0451,0.0373,0.0406,0.0396,0.037,0.0353,0.035,0.037,0.0342,0.0345,0.0365,0.0349,0.0351,0.0389,0.0427,0.0363,0.0363,0.0427,0.043,0.0432,0.0522,0,0,0,0,0,0,0.0464,0.0452,0.0461,0.0406,0.0394,0.0363,0.0352,0.0348,0.0357,0.0359,0.0364,0.0366,0.035,0.0389,0.0389,0.0426,0.0364,0.0425,0.0429,0.0432,0.0517,0.0527,0.0536,0,0,0,0,0,0.0468,0.0466,0.0462,0.0452,0.04,0.0363,0.0358,0.0345,0.0358,0.0368,0.0386,0.0367,0.041,0.0391,0.0391,0.0428,0.0424,0.0428,0.0431,0.0512,0.0525,0.0536,0,0,0,0,0,0,0.0526,0.0465,0.0459,0.0442,0.0416,0.0364,0.0372,0.0364,0.0383,0.0407,0.0388,0.0391,0.0435,0.0421,0.0401,0.0457,0.0414,0.0418,0.0475,0.0487,0.0497,0.0512,0.0364,0,0,0,0,0,0.054,0.0525,0.047,0.0465,0.0454,0.0423,0.0415,0.0409,0.0404,0.0414,0.0421,0.0434,0.0443,0.046,0.0461,0.0495,0.0496,0.0519,0.0529,0.0537,0.055,0.0577,0.059,0.0446,0.0446,0.0446,0,0,0.056,0.0527,0.0519,0.0477,0.046,0.0444,0.0423,0.0424,0.0435,0.0415,0.0462,0.0468,0.0459,0.0496,0.0515,0.0496,0.0585,0.0542,0.0549,0.0558,0.0582,0.0596,0.0609,0.0449,0.0448,0.0448,0,0,0.0576,0.0567,0.0554,0.0534,0.0511,0.0491,0.0499,0.0476,0.0496,0.0529,0.0522,0.0554,0.0573,0.0571,0.0571,0.0635,0.063,0.0647,0.0715,0.0741,0.0753,0.0764,0.0807,0.082,0.0657,0.0657,0.0657,0,0.0606,0.058,0.055,0.0533,0.0526,0.0516,0.0512,0.0521,0.0525,0.0557,0.0563,0.0613,0.0602,0.0639,0.0669,0.0656,0.0686,0.0671,0.0755,0.0765,0.0774,0.0815,0.0829,0.0662,0.0661,0.0661,0.0661,0,0.06,0.0593,0.059,0.0563,0.0556,0.0559,0.0551,0.0588,0.0622,0.0634,0.0704,0.0704,0.0742,0.0739,0.0728,0.0793,0.08,0.0759,0.0725,0.0794,0.0833,0.0846,0.0669,0.0667,0.0666,0.0665,0,0,0.0621,0.0591,0.0595,0.0592,0.058,0.0571,0.0612,0.0638,0.0689,0.073,0.0795,0.0821,0.0857,0.0859,0.0855,0.0876,0.0967,0.0868,0.0867,0.0913,0.1064,0.1037,0.1047,0.0957,0.096,0.0961,0.1073,0,0.063,0.0615,0.0601,0.0608,0.0596,0.0613,0.0649,0.0686,0.0738,0.0807,0.0842,0.0899,0.0892,0.0933,0.0963,0.0954,0.1003,0.0942,0.0989,0.0991,0.0958,0.1061,0.0965,0.1054,0.1085,0.1087,0.1089,0,0.0632,0.0613,0.0625,0.0631,0.0633,0.0657,0.0729,0.0768,0.0855,0.0902,0.0984,0.101,0.1076,0.1047,0.1117,0.1092,0.111,0.1095,0.1098,0.1049,0.0986,0.0985,0.1075,0.111,0.1108,0.1107,0.1105,0,0.0652,0.0639,0.0661,0.0658,0.0662,0.0707,0.0745,0.0821,0.0876,0.0988,0.1034,0.1119,0.117,0.1203,0.1207,0.1187,0.1261,0.1214,0.121,0.1209,0.1121,0.1107,0.1279,0.1279,0.1279,0.1278,0.1278,0,0.0658,0.0661,0.0684,0.0686,0.0738,0.0749,0.0847,0.0893,0.0982,0.105,0.1113,0.1162,0.1216,0.1256,0.1257,0.1289,0.1316,0.1256,0.1244,0.1151,0.114,0.1166,0.1152,0.1282,0.1281,0.1281,0.128,0,0.0652,0.0671,0.0684,0.0719,0.0749,0.0799,0.0896,0.0959,0.1039,0.1127,0.1167,0.1233,0.1304,0.1333,0.1376,0.135,0.1361,0.136,0.126,0.1235,0.1287,0.1276,0.1397,0.1397,0.1398,0.1398,0.1398,0,0.0644,0.0659,0.0719,0.0758,0.0782,0.0865,0.0928,0.1004,0.1056,0.115,0.1177,0.1277,0.1339,0.1403,0.1421,0.1463,0.141,0.132,0.1248,0.1328,0.1304,0.1293,0.1282,0.1182,0.118,0.1179,0.1177,0,0.0621,0.0669,0.0678,0.0767,0.0841,0.0898,0.0983,0.1012,0.1097,0.1157,0.1218,0.1277,0.1393,0.1402,0.1444,0.1414,0.1307,0.1294,0.1417,0.1154,0.113,0.1104,0.11,0.1165,0.1166,0.1167,0.1168,0.1168,0.062,0.0642,0.0706,0.0767,0.0849,0.0907,0.0943,0.1007,0.1073,0.1145,0.1215,0.1276,0.1289,0.1357,0.1335,0.1299,0.1361,0.1214,0.1216,0.122,0.1163,0.1139,0.1167,0.1169,0.117,0.1171,0.1171,0,0.062,0.0654,0.0711,0.0781,0.0837,0.0909,0.0958,0.0965,0.1015,0.1118,0.1211,0.1125,0.1177,0.119,0.1177,0.1166,0.1142,0.1051,0.1,0.1012,0.1023,0.0954,0.0904,0.0903,0.0903,0.0902,0,0,0.0629,0.0656,0.0673,0.0743,0.082,0.0874,0.0896,0.0911,0.0949,0.0967,0.1018,0.1182,0.1176,0.1055,0.1025,0.0975,0.0985,0.093,0.114,0.1094,0.1105,0.1107,0.1013,0,0,0,0,0]},{"header":{"parameterUnit":"m.s-1","parameterCategory":2,"la1":30.2991,"la2":30.254,"lo1":-89.0895,"lo2":-89.0444,"dy":0.0017,"dx":0.0017,"nx":28,"ny":28,"refTime":"2024-04-20T09:00:00:Z","depth":"2","parameterNumber":3,"parameterNumberName":"V-component_of_CURRENTS"},"data":[0,0,0,0,0,0,0,0,0,0,0,0,0,0,0,0,0,0,0,0,0,0,0,0,0,0,0,0,0,0,0,0,0,0,0,0,0,0,0,0,0,0,0,0,0,0,0,0,0,0,0,0,0,0,0,0,0,0,-0.0193,-0.0193,0,-0.0194,-0.0195,-0.0195,-0.0238,-0.0239,-0.024,-0.0241,-0.0312,-0.0313,-0.0314,0,0,0,0,0,0,0,0,0,0,0,0,0,-0.0278,-0.0276,-0.0193,-0.0193,-0.0193,-0.0194,-0.0195,-0.0195,-0.0238,-0.0239,-0.024,-0.0241,-0.0311,-0.0313,-0.0314,0,0,0,0,0,0,0,0,0,0,0,0,0,-0.0259,-0.0275,-0.0193,-0.0212,-0.0214,-0.0194,-0.0195,-0.0195,-0.0238,-0.0239,-0.024,-0.0242,-0.0311,-0.0312,-0.0314,-0.0297,0,0,-0.0319,-0.032,0,0,0,0,0,0,0,0,-0.026,-0.0256,-0.021,-0.0211,-0.0213,-0.0215,-0.025,-0.0232,-0.0237,-0.0231,-0.0241,-0.0242,-0.0283,-0.0287,-0.0287,-0.0301,-0.0304,-0.0319,-0.032,-0.0321,-0.0321,0,0,0,0,0,0,0,-0.0261,-0.0256,-0.0196,-0.0209,-0.0211,-0.0238,-0.0237,-0.0247,-0.0253,-0.0232,-0.0234,-0.023,-0.0285,-0.0285,-0.0289,-0.0305,-0.0319,-0.032,-0.0321,-0.0322,-0.0392,-0.0393,0,0,0,0,0,0,-0.0251,-0.0257,-0.0196,-0.0196,-0.0237,-0.0235,-0.0233,-0.0215,-0.0252,-0.0257,-0.0229,-0.0232,-0.0282,-0.0287,-0.0292,-0.035,-0.0321,-0.0322,-0.0323,-0.0391,-0.0392,-0.0393,0,0,0,0,0,0,-0.0252,-0.0245,-0.0196,-0.0226,-0.0221,-0.0231,-0.0211,-0.0214,-0.0242,-0.0248,-0.0256,-0.0256,-0.0283,-0.029,-0.0333,-0.0351,-0.0323,-0.0324,-0.039,-0.0392,-0.0393,-0.0418,0,0,0,0,0,0,-0.0254,-0.0245,-0.0247,-0.0224,-0.0219,-0.0199,-0.0209,-0.0213,-0.0234,-0.0239,-0.0273,-0.0279,-0.0285,-0.0331,-0.0335,-0.0352,-0.0326,-0.0389,-0.0391,-0.0392,-0.0416,-0.042,-0.0424,0,0,0,0,0,-0.0257,-0.0246,-0.0246,-0.024,-0.0214,-0.0199,-0.02,-0.0214,-0.0235,-0.0246,-0.028,-0.028,-0.0344,-0.0333,-0.0337,-0.0356,-0.0388,-0.039,-0.0392,-0.0415,-0.042,-0.0424,0,0,0,0,0,0,-0.0291,-0.0248,-0.0249,-0.0227,-0.0222,-0.0206,-0.0221,-0.0227,-0.026,-0.0283,-0.0293,-0.0302,-0.0346,-0.0347,-0.0335,-0.0381,-0.0365,-0.0368,-0.0381,-0.0385,-0.0389,-0.0375,-0.0327,0,0,0,0,0,-0.0294,-0.0278,-0.0246,-0.024,-0.0236,-0.0235,-0.0239,-0.0247,-0.0261,-0.0278,-0.0301,-0.0329,-0.035,-0.0368,-0.0386,-0.0411,-0.0406,-0.0425,-0.0429,-0.0432,-0.0424,-0.0434,-0.0437,-0.04,-0.04,-0.04,0,0,-0.0311,-0.0285,-0.028,-0.0248,-0.025,-0.0238,-0.0243,-0.0256,-0.0262,-0.028,-0.0322,-0.0348,-0.0361,-0.0393,-0.0412,-0.0402,-0.0443,-0.0435,-0.0437,-0.0427,-0.0436,-0.044,-0.0443,-0.0401,-0.0401,-0.0401,0,0,-0.032,-0.031,-0.0294,-0.0285,-0.0279,-0.0271,-0.0278,-0.0277,-0.0299,-0.0328,-0.0348,-0.0386,-0.0417,-0.0428,-0.0435,-0.0469,-0.0465,-0.0482,-0.0488,-0.0498,-0.05,-0.0503,-0.051,-0.0513,-0.0481,-0.0481,-0.0481,0,-0.0344,-0.0307,-0.0295,-0.0277,-0.0272,-0.0284,-0.0273,-0.0288,-0.031,-0.0327,-0.0351,-0.0405,-0.0427,-0.0447,-0.0467,-0.0476,-0.0482,-0.0469,-0.0501,-0.0504,-0.0506,-0.0512,-0.0515,-0.0482,-0.0482,-0.0482,-0.0482,0,-0.0329,-0.0311,-0.0308,-0.028,-0.0278,-0.0278,-0.0278,-0.0303,-0.0335,-0.0347,-0.0396,-0.0429,-0.0454,-0.0474,-0.0484,-0.0509,-0.051,-0.0507,-0.0487,-0.0511,-0.0517,-0.0519,-0.0485,-0.0484,-0.0484,-0.0483,0,0,-0.0334,-0.0301,-0.0298,-0.0287,-0.028,-0.027,-0.029,-0.0295,-0.0308,-0.0361,-0.0375,-0.0434,-0.0462,-0.0471,-0.0493,-0.0511,-0.0543,-0.0521,-0.0521,-0.0523,-0.0568,-0.0574,-0.0577,-0.055,-0.055,-0.0551,-0.057,0,-0.0324,-0.0289,-0.0273,-0.0257,-0.0241,-0.0254,-0.0257,-0.0278,-0.0311,-0.0334,-0.0385,-0.0411,-0.0456,-0.0472,-0.0503,-0.0531,-0.0549,-0.0538,-0.0549,-0.0549,-0.0547,-0.058,-0.0508,-0.052,-0.0572,-0.0572,-0.0573,0,-0.0296,-0.0276,-0.0258,-0.0229,-0.0224,-0.0222,-0.0231,-0.0236,-0.0274,-0.03,-0.0347,-0.0382,-0.0431,-0.0454,-0.0522,-0.0517,-0.0545,-0.0567,-0.0568,-0.0561,-0.0559,-0.0503,-0.0521,-0.0576,-0.0576,-0.0576,-0.0575,0,-0.029,-0.0254,-0.0244,-0.0239,-0.0219,-0.0223,-0.0214,-0.0239,-0.0235,-0.028,-0.0282,-0.0355,-0.0376,-0.0438,-0.0512,-0.0516,-0.0573,-0.0575,-0.0602,-0.0603,-0.0536,-0.053,-0.0605,-0.0605,-0.0605,-0.0605,-0.0605,0,-0.0265,-0.0245,-0.0244,-0.0239,-0.0217,-0.0214,-0.0197,-0.0206,-0.021,-0.0195,-0.0265,-0.0261,-0.0373,-0.0425,-0.0496,-0.0567,-0.0563,-0.0607,-0.061,-0.0545,-0.054,-0.058,-0.0577,-0.0605,-0.0605,-0.0605,-0.0605,0,-0.0238,-0.0245,-0.0227,-0.0221,-0.0213,-0.0203,-0.0159,-0.0139,-0.0156,-0.0136,-0.0143,-0.0195,-0.0265,-0.0374,-0.0463,-0.0531,-0.0601,-0.0618,-0.054,-0.0535,-0.0626,-0.0624,-0.065,-0.065,-0.065,-0.0651,-0.0651,0,-0.0211,-0.0209,-0.0214,-0.0197,-0.0191,-0.0164,-0.0129,-0.0122,-0.0095,-0.0085,-0.0066,-0.0125,-0.0131,-0.0281,-0.0416,-0.0538,-0.0586,-0.0568,-0.0564,-0.0631,-0.0632,-0.0629,-0.0627,-0.0486,-0.0485,-0.0484,-0.0483,0,-0.016,-0.0187,-0.0176,-0.0152,-0.0129,-0.0073,-0.003,0.0,0.0016,0.0047,0.0086,0.0091,-0.0042,-0.0144,-0.0338,-0.0412,-0.0553,-0.0553,-0.0634,-0.0493,-0.048,-0.048,-0.0482,-0.0475,-0.0476,-0.0476,-0.0477,-0.0477,-0.0125,-0.0113,-0.0119,-0.0085,-0.005,0.0016,0.0075,0.0131,0.0197,0.0279,0.025,0.0283,0.012,-0.0078,-0.025,-0.0456,-0.0467,-0.0524,-0.0525,-0.0527,-0.0512,-0.0501,-0.0497,-0.0498,-0.0499,-0.0499,-0.05,0,-0.0066,-0.0057,-0.0029,0.0005,0.0066,0.007,0.0152,0.0229,0.0331,0.0409,0.0484,0.0377,0.0267,0.0037,-0.0239,-0.04,-0.0392,-0.046,-0.0418,-0.0424,-0.043,-0.0409,-0.0367,-0.0368,-0.0368,-0.0368,0,0,-0.0035,0.0002,0.0011,0.0106,0.0142,0.0238,0.0293,0.0401,0.0473,0.0578,0.0602,0.0662,0.0349,0.018,-0.0047,-0.0222,-0.0276,-0.0235,-0.0317,-0.0242,-0.0246,-0.0436,-0.0408,0,0,0,0,0]}],[{"header":{"parameterUnit":"m.s-1","parameterCategory":2,"la1":30.2991,"la2":30.254,"lo1":-89.0895,"lo2":-89.0444,"dy":0.0017,"dx":0.0017,"nx":28,"ny":28,"refTime":"2024-04-20T09:00:00:Z","depth":"4","parameterNumber":2,"parameterNumberName":"U-component_of_CURRENTS"},"data":[0,0,0,0,0,0,0,0,0,0,0,0,0,0,0,0,0,0,0,0,0,0,0,0,0,0,0,0,0,0,0,0,0,0,0,0,0,0,0,0,0,0,0,0,0,0,0,0,0,0,0,0,0,0,0,0,0,0,0.0244,0.0244,0,0.0249,0.0249,0.0249,0.0258,0.0258,0.0258,0.0258,0.0207,0.0205,0.0203,0,0,0,0,0,0,0,0,0,0,0,0,0,0.0242,0.0242,0.0244,0.0244,0.0245,0.0249,0.0249,0.0249,0.0258,0.0258,0.0258,0.0259,0.0207,0.0205,0.0203,0,0,0,0,0,0,0,0,0,0,0,0,0,0.0244,0.0242,0.0244,0.025,0.0251,0.0249,0.0249,0.0249,0.0258,0.0258,0.0258,0.0259,0.0208,0.0205,0.0203,0.0181,0,0,0.0196,0.0195,0,0,0,0,0,0,0,0,0.0244,0.0244,0.0249,0.025,0.025,0.0254,0.0229,0.0224,0.0258,0.0254,0.0258,0.0259,0.0217,0.0214,0.0214,0.0178,0.0176,0.0195,0.0194,0.0193,0.0192,0,0,0,0,0,0,0,0.0244,0.0244,0.0245,0.0249,0.025,0.0252,0.0253,0.0228,0.0232,0.0254,0.0255,0.0257,0.0217,0.0216,0.0213,0.0175,0.0195,0.0193,0.0192,0.0191,0.0142,0.0142,0,0,0,0,0,0,0.0244,0.0244,0.0245,0.0246,0.0249,0.0252,0.0253,0.0252,0.0234,0.0232,0.0257,0.0257,0.022,0.0215,0.0211,0.018,0.0193,0.0191,0.0189,0.0141,0.0142,0.0142,0,0,0,0,0,0,0.0244,0.0244,0.0245,0.0245,0.0246,0.0252,0.0251,0.0252,0.0263,0.0236,0.0233,0.0268,0.022,0.0214,0.0198,0.0178,0.019,0.0187,0.0141,0.0141,0.0142,0.012,0,0,0,0,0,0,0.0244,0.0244,0.0245,0.0245,0.0246,0.0254,0.025,0.0251,0.0263,0.0264,0.0244,0.024,0.022,0.0202,0.0196,0.0175,0.0186,0.0141,0.0141,0.0142,0.012,0.0119,0.0118,0,0,0,0,0,0.0244,0.0243,0.0245,0.0245,0.0246,0.0254,0.0255,0.026,0.0263,0.0271,0.0256,0.0241,0.0199,0.02,0.0193,0.017,0.0141,0.0141,0.0142,0.0121,0.0119,0.0118,0,0,0,0,0,0,0.0248,0.0244,0.0246,0.0245,0.0255,0.0257,0.0262,0.0267,0.0262,0.0262,0.0239,0.0233,0.0216,0.0202,0.0204,0.0161,0.0168,0.0167,0.0155,0.0154,0.0153,0.0156,0.0184,0,0,0,0,0,0.0247,0.0244,0.0248,0.0251,0.0255,0.0261,0.0266,0.0271,0.0267,0.0267,0.025,0.0231,0.021,0.0191,0.0179,0.0146,0.0167,0.0131,0.013,0.0129,0.0129,0.0142,0.0142,0.0143,0.0143,0.0143,0,0,0.0252,0.0248,0.0249,0.0251,0.0257,0.0264,0.0265,0.0277,0.0277,0.0259,0.025,0.0233,0.0207,0.0178,0.0167,0.016,0.0145,0.0129,0.0128,0.0128,0.0142,0.0142,0.0142,0.0143,0.0143,0.0143,0,0,0.0257,0.0256,0.0255,0.0262,0.0271,0.0273,0.028,0.0285,0.0283,0.0273,0.0258,0.0231,0.0204,0.017,0.0151,0.0137,0.0151,0.0135,0.0111,0.0123,0.0123,0.0123,0.0175,0.0179,0.0119,0.0119,0.0119,0,0.0264,0.026,0.026,0.0263,0.0267,0.0279,0.0285,0.0284,0.0282,0.0265,0.0273,0.0218,0.0197,0.0141,0.0136,0.0131,0.0161,0.0112,0.0121,0.0122,0.0122,0.0175,0.018,0.0118,0.0118,0.0118,0.0118,0,0.0268,0.0268,0.0272,0.0274,0.028,0.029,0.0289,0.0288,0.0285,0.027,0.0233,0.0203,0.0166,0.0149,0.0134,0.0109,0.0141,0.013,0.0122,0.012,0.0177,0.0183,0.0116,0.0117,0.0117,0.0117,0,0,0.0275,0.0273,0.0277,0.0276,0.0285,0.0291,0.0286,0.0272,0.0261,0.024,0.0215,0.0161,0.0143,0.0122,0.0093,0.0087,0.0119,0.0106,0.0107,0.0154,0.0185,0.0185,0.0192,0.0112,0.0112,0.0113,0.0232,0,0.028,0.0284,0.028,0.0289,0.029,0.029,0.0283,0.0269,0.0255,0.0235,0.0184,0.0161,0.0132,0.0117,0.0101,0.0124,0.0131,0.009,0.0182,0.0186,0.0182,0.0196,0.0114,0.0237,0.0238,0.0239,0.024,0,0.0286,0.0283,0.0291,0.0283,0.0285,0.0289,0.0276,0.0267,0.0232,0.022,0.0174,0.016,0.0131,0.0122,0.0145,0.0126,0.0155,0.0171,0.0176,0.0184,0.0195,0.0234,0.0252,0.0251,0.025,0.0249,0.0248,0,0.029,0.0291,0.0294,0.0297,0.0292,0.0286,0.0279,0.0254,0.0247,0.0213,0.0221,0.0174,0.0188,0.0189,0.0224,0.0195,0.0283,0.0248,0.0274,0.0277,0.0251,0.0249,0.0272,0.0271,0.0271,0.0271,0.0271,0,0.029,0.0293,0.0296,0.0299,0.0296,0.0286,0.0278,0.0261,0.0247,0.0254,0.0213,0.0229,0.0212,0.0254,0.0256,0.0302,0.0314,0.0283,0.03,0.0244,0.024,0.0258,0.0254,0.0275,0.0274,0.0274,0.0273,0,0.029,0.0295,0.0298,0.0297,0.0298,0.0293,0.0293,0.0288,0.0278,0.0298,0.03,0.0304,0.0348,0.0349,0.0388,0.0371,0.0395,0.0409,0.0396,0.0409,0.0376,0.037,0.044,0.0441,0.0442,0.0442,0.0443,0,0.0285,0.0289,0.0305,0.0311,0.0311,0.0306,0.031,0.0299,0.031,0.0351,0.0373,0.0418,0.0421,0.0479,0.0465,0.0479,0.0457,0.0491,0.0371,0.038,0.039,0.0383,0.0376,0.0444,0.0444,0.0444,0.0445,0,0.0274,0.029,0.0296,0.0316,0.0327,0.0334,0.0343,0.0351,0.0365,0.0389,0.0436,0.0444,0.0498,0.0487,0.0517,0.0512,0.0469,0.0497,0.0493,0.0381,0.0385,0.0392,0.0385,0.0447,0.0447,0.0446,0.0446,0,0.0269,0.0275,0.0298,0.0308,0.0334,0.0346,0.0345,0.0372,0.0382,0.0432,0.0465,0.049,0.0522,0.051,0.0535,0.0532,0.0491,0.0465,0.0462,0.046,0.0401,0.0404,0.0496,0,0,0,0,0,0.0257,0.0263,0.0283,0.0294,0.0327,0.034,0.0368,0.0371,0.0409,0.0444,0.0445,0.0485,0.0499,0.0502,0.0494,0.0516,0.0483,0.0505,0.0449,0.046,0.0457,0.038,0,0,0,0,0,0,0.0247,0.0266,0.0276,0.029,0.0298,0.0326,0.0342,0.0366,0.0375,0.042,0.0418,0.0471,0.0471,0.0499,0.0488,0.0492,0.0452,0.0526,0.0526,0.0462,0.0459,0.0457,0.0376,0,0,0,0,0]},{"header":{"parameterUnit":"m.s-1","parameterCategory":2,"la1":30.2991,"la2":30.254,"lo1":-89.0895,"lo2":-89.0444,"dy":0.0017,"dx":0.0017,"nx":28,"ny":28,"refTime":"2024-04-20T09:00:00:Z","depth":"4","parameterNumber":3,"parameterNumberName":"V-component_of_CURRENTS"},"data":[0,0,0,0,0,0,0,0,0,0,0,0,0,0,0,0,0,0,0,0,0,0,0,0,0,0,0,0,0,0,0,0,0,0,0,0,0,0,0,0,0,0,0,0,0,0,0,0,0,0,0,0,0,0,0,0,0,0,0.0198,0.0198,0,0.0178,0.0177,0.0177,0.0184,0.0185,0.0185,0.0186,0.0156,0.0154,0.0153,0,0,0,0,0,0,0,0,0,0,0,0,0,0.0206,0.0206,0.0198,0.0198,0.0198,0.0178,0.0177,0.0177,0.0184,0.0185,0.0185,0.0186,0.0156,0.0155,0.0153,0,0,0,0,0,0,0,0,0,0,0,0,0,0.0194,0.0206,0.0198,0.0201,0.0201,0.0178,0.0177,0.0176,0.0184,0.0185,0.0186,0.0187,0.0157,0.0155,0.0153,0.0119,0,0,0.0146,0.0145,0,0,0,0,0,0,0,0,0.0194,0.0193,0.02,0.02,0.0201,0.0186,0.0169,0.0158,0.0183,0.0188,0.0186,0.0187,0.0166,0.0163,0.0154,0.0118,0.0116,0.0146,0.0145,0.0144,0.0143,0,0,0,0,0,0,0,0.0195,0.0194,0.0187,0.02,0.02,0.0191,0.019,0.0167,0.0169,0.0187,0.0188,0.019,0.0166,0.0156,0.0153,0.0116,0.0146,0.0144,0.0143,0.0142,0.0076,0.0076,0,0,0,0,0,0,0.0203,0.0195,0.0188,0.0187,0.0203,0.019,0.0189,0.0188,0.017,0.0169,0.0189,0.019,0.0159,0.0156,0.0152,0.0141,0.0144,0.0142,0.014,0.0077,0.0076,0.0076,0,0,0,0,0,0,0.0203,0.0203,0.0189,0.0192,0.019,0.0189,0.0187,0.0187,0.0191,0.0171,0.017,0.0195,0.016,0.0155,0.0142,0.0139,0.0141,0.0139,0.0077,0.0076,0.0076,0.01,0,0,0,0,0,0,0.0204,0.0203,0.0205,0.0193,0.0191,0.0183,0.0187,0.0186,0.019,0.0192,0.0176,0.0174,0.016,0.0146,0.014,0.0136,0.0137,0.0078,0.0077,0.0076,0.01,0.01,0.0101,0,0,0,0,0,0.0204,0.0204,0.0205,0.0205,0.0194,0.0183,0.018,0.0181,0.019,0.0189,0.0181,0.0175,0.0136,0.0144,0.0137,0.0133,0.0078,0.0077,0.0076,0.01,0.01,0.0101,0,0,0,0,0,0,0.0208,0.0204,0.0206,0.0205,0.0199,0.0185,0.0187,0.0186,0.0178,0.0182,0.0169,0.0165,0.0149,0.0136,0.0145,0.011,0.0105,0.0103,0.0125,0.0126,0.0126,0.0135,0.0135,0,0,0,0,0,0.021,0.0212,0.0203,0.0204,0.0203,0.0197,0.0194,0.0192,0.0183,0.0182,0.0173,0.0158,0.0136,0.013,0.0107,0.009,0.0085,0.0082,0.0082,0.0083,0.0085,0.0087,0.0089,0.0072,0.0072,0.0072,0,0,0.0215,0.0212,0.0215,0.0206,0.0203,0.0189,0.0198,0.0195,0.0179,0.0177,0.0163,0.0157,0.013,0.0111,0.0103,0.0104,0.0081,0.0082,0.0083,0.0084,0.0086,0.0088,0.009,0.0071,0.0072,0.0072,0,0,0.0216,0.0221,0.0219,0.0211,0.0205,0.0193,0.0196,0.0187,0.0182,0.0166,0.0159,0.0153,0.0127,0.0107,0.0093,0.0079,0.0081,0.0078,0.0092,0.0094,0.0096,0.0098,0.0084,0.0084,0.0083,0.0083,0.0083,0,0.0219,0.0211,0.0216,0.0205,0.0194,0.0197,0.0179,0.0169,0.0156,0.0147,0.0165,0.0132,0.0117,0.0087,0.0094,0.0079,0.0087,0.0095,0.0097,0.0098,0.01,0.0085,0.0085,0.0084,0.0084,0.0084,0.0083,0,0.021,0.0203,0.0202,0.0185,0.0173,0.0162,0.0146,0.0136,0.0138,0.0129,0.0116,0.011,0.01,0.0091,0.0094,0.0091,0.0095,0.0096,0.0101,0.0103,0.0087,0.0086,0.0085,0.0085,0.0085,0.0084,0,0,0.0213,0.0197,0.0198,0.0181,0.0159,0.0146,0.0119,0.0091,0.0078,0.0083,0.0073,0.0059,0.0089,0.0075,0.0082,0.0091,0.0108,0.0116,0.0115,0.0111,0.0118,0.0076,0.0071,0.0131,0.0131,0.0131,0.01,0,0.02,0.0178,0.0168,0.0137,0.0117,0.0102,0.0076,0.0053,0.0047,0.0041,0.0046,0.0047,0.0072,0.0092,0.0104,0.0104,0.0111,0.0116,0.0109,0.0107,0.0078,0.007,0.0132,0.01,0.01,0.01,0.01,0,0.0189,0.0171,0.0144,0.0103,0.0095,0.0077,0.0037,0.0017,0.0002,0.0008,0.0024,0.0042,0.0056,0.0088,0.0097,0.0112,0.0126,0.0125,0.0124,0.0076,0.0064,0.0098,0.0099,0.0099,0.0099,0.0099,0.0099,0,0.0184,0.015,0.0128,0.0116,0.0074,0.0057,0.0039,0.0013,-0.0,0.0009,0.0019,0.0034,0.0058,0.0078,0.0089,0.0113,0.0088,0.0111,0.0072,0.0069,0.0108,0.0107,0.0118,0.0119,0.0119,0.0119,0.0119,0,0.0165,0.0145,0.0129,0.0117,0.0082,0.006,0.0033,0.0018,0.0012,0.0007,0.0028,0.0032,0.0069,0.0061,0.0076,0.006,0.0077,0.0069,0.0059,0.0116,0.0116,0.0107,0.0106,0.0118,0.0118,0.0118,0.0118,0,0.0156,0.015,0.012,0.009,0.0082,0.0063,0.0038,0.0024,0.0025,0.0025,0.0041,0.004,0.003,0.0022,0.0028,0.0035,0.002,0.0008,0.0043,0.0037,0.0006,0.0006,-0.0022,-0.0024,-0.0025,-0.0026,-0.0027,0,0.0145,0.0135,0.0115,0.0105,0.0094,0.0071,0.0057,0.0041,0.0035,0.0024,0.0027,0.0014,0.0014,-0.0026,-0.0036,-0.0054,-0.0045,-0.0046,0.0012,-0.0002,-0.0008,-0.0005,-0.0002,-0.003,-0.003,-0.003,-0.0031,0,0.0118,0.0127,0.0109,0.0107,0.0096,0.007,0.0057,0.0055,0.0047,0.004,0.0038,0.0025,-0.0014,-0.0034,-0.0067,-0.0072,-0.004,-0.0061,-0.0056,-0.0001,-0.0011,-0.0015,-0.0011,-0.0036,-0.0035,-0.0035,-0.0034,0,0.0107,0.0099,0.0107,0.0098,0.0093,0.0088,0.0069,0.0065,0.0057,0.0058,0.0047,0.0016,0.0,-0.0048,-0.0081,-0.01,-0.0076,-0.0039,-0.0035,-0.003,-0.0024,-0.0038,-0.0082,0,0,0,0,0,0.0092,0.0097,0.0095,0.0092,0.0097,0.0098,0.0079,0.0063,0.0056,0.0066,0.0065,0.0033,-0.0008,-0.0047,-0.0068,-0.0113,-0.0094,-0.0138,-0.0051,-0.0064,-0.0058,-0.0054,0,0,0,0,0,0,0.0082,0.0088,0.0096,0.0107,0.0113,0.0112,0.0106,0.0092,0.0091,0.0085,0.0054,0.0047,-0.0013,0.0015,-0.0059,-0.0072,-0.0014,-0.0167,-0.0167,-0.0067,-0.0062,-0.0057,-0.0051,0,0,0,0,0]}]]